Wetterdaten: Samstag, 02.11.2013
Datum Zeit Temp. I. Temp. A. Boden 5 cm Feuchte A. Sonne Luftdruck Regen Wind Sonnenschein
02.11.2013 00:00 21,7 C 5,8 C 4,0 C 99 % 0 % 1009 hPa 0,0 l/m 0,0 km/h (0 Bft) 0 min
02.11.2013 00:03 21,7 C 5,8 C 4,0 C 99 % 0 % 1009 hPa 0,0 l/m 0,0 km/h (0 Bft) 0 min
02.11.2013 00:06 21,7 C 5,7 C 4,2 C 99 % 0 % 1009 hPa 0,0 l/m 0,0 km/h (0 Bft) 0 min
02.11.2013 00:09 21,7 C 5,7 C 4,0 C 99 % 0 % 1009 hPa 0,0 l/m 0,0 km/h (0 Bft) 0 min
02.11.2013 00:12 21,7 C 5,7 C 4,1 C 99 % 0 % 1008 hPa 0,0 l/m 0,0 km/h (0 Bft) 0 min
02.11.2013 00:15 21,7 C 5,7 C 4,2 C 99 % 0 % 1008 hPa 0,0 l/m 0,0 km/h (0 Bft) 0 min
02.11.2013 00:18 21,7 C 5,7 C 4,6 C 99 % 0 % 1008 hPa 0,0 l/m 0,0 km/h (0 Bft) 0 min
02.11.2013 00:21 21,7 C 5,7 C 4,5 C 99 % 0 % 1008 hPa 0,0 l/m 0,0 km/h (0 Bft) 0 min
02.11.2013 00:24 21,7 C 5,7 C 4,7 C 99 % 0 % 1008 hPa 0,0 l/m 0,0 km/h (0 Bft) 0 min
02.11.2013 00:27 21,7 C 5,8 C 4,8 C 99 % 0 % 1008 hPa 0,0 l/m 0,0 km/h (0 Bft) 0 min
02.11.2013 00:30 21,7 C 5,8 C 4,8 C 99 % 0 % 1008 hPa 0,0 l/m 0,0 km/h (0 Bft) 0 min
02.11.2013 00:33 21,7 C 5,8 C 4,8 C 99 % 0 % 1008 hPa 0,0 l/m 0,0 km/h (0 Bft) 0 min
02.11.2013 00:36 21,7 C 6,0 C 4,8 C 99 % 0 % 1008 hPa 0,0 l/m 0,0 km/h (0 Bft) 0 min
02.11.2013 00:39 21,7 C 5,9 C 4,9 C 99 % 0 % 1008 hPa 0,0 l/m 0,0 km/h (0 Bft) 0 min
02.11.2013 00:42 21,7 C 5,9 C 5,1 C 99 % 0 % 1008 hPa 0,0 l/m 0,7 km/h (0 Bft) 0 min
02.11.2013 00:45 21,7 C 5,9 C 4,9 C 99 % 0 % 1008 hPa 0,0 l/m 2,0 km/h (1 Bft) 0 min
02.11.2013 00:48 21,7 C 6,0 C 4,9 C 99 % 0 % 1008 hPa 0,0 l/m 0,5 km/h (0 Bft) 0 min
02.11.2013 00:51 21,7 C 6,0 C 5,0 C 99 % 0 % 1008 hPa 0,0 l/m 0,3 km/h (0 Bft) 0 min
02.11.2013 00:54 21,7 C 6,1 C 5,0 C 99 % 0 % 1008 hPa 0,0 l/m 0,0 km/h (0 Bft) 0 min
02.11.2013 00:57 21,7 C 6,1 C 5,0 C 98 % 0 % 1008 hPa 0,0 l/m 0,0 km/h (0 Bft) 0 min
02.11.2013 01:00 21,7 C 6,1 C 5,3 C 99 % 0 % 1008 hPa 0,0 l/m 0,0 km/h (0 Bft) 0 min
02.11.2013 01:03 21,7 C 6,1 C 5,3 C 99 % 0 % 1008 hPa 0,0 l/m 0,0 km/h (0 Bft) 0 min
02.11.2013 01:06 21,7 C 6,1 C 5,0 C 99 % 0 % 1008 hPa 0,0 l/m 0,0 km/h (0 Bft) 0 min
02.11.2013 01:09 21,6 C 6,0 C 5,0 C 99 % 0 % 1008 hPa 0,0 l/m 0,0 km/h (0 Bft) 0 min
02.11.2013 01:12 21,6 C 6,0 C 5,0 C 99 % 0 % 1008 hPa 0,0 l/m 0,0 km/h (0 Bft) 0 min
02.11.2013 01:15 21,7 C 6,0 C 5,1 C 99 % 0 % 1008 hPa 0,0 l/m 0,0 km/h (0 Bft) 0 min
02.11.2013 01:18 21,6 C 6,0 C 5,0 C 99 % 0 % 1008 hPa 0,0 l/m 0,0 km/h (0 Bft) 0 min
02.11.2013 01:21 21,6 C 5,8 C 4,8 C 99 % 0 % 1008 hPa 0,0 l/m 0,0 km/h (0 Bft) 0 min
02.11.2013 01:24 21,7 C 5,8 C 4,8 C 99 % 0 % 1008 hPa 0,0 l/m 0,0 km/h (0 Bft) 0 min
02.11.2013 01:27 21,6 C 5,9 C 5,1 C 99 % 0 % 1008 hPa 0,0 l/m 0,0 km/h (0 Bft) 0 min
02.11.2013 01:30 21,6 C 5,9 C 5,1 C 99 % 0 % 1008 hPa 0,0 l/m 0,0 km/h (0 Bft) 0 min
02.11.2013 01:33 21,6 C 5,8 C 5,1 C 99 % 0 % 1008 hPa 0,0 l/m 5,2 km/h (1 Bft) 0 min
02.11.2013 01:36 21,6 C 5,7 C 5,1 C 99 % 0 % 1008 hPa 0,0 l/m 7,2 km/h (2 Bft) 0 min
02.11.2013 01:39 21,6 C 5,6 C 4,9 C 99 % 0 % 1008 hPa 0,0 l/m 4,5 km/h (1 Bft) 0 min
02.11.2013 01:42 21,6 C 5,6 C 4,8 C 99 % 0 % 1008 hPa 0,0 l/m 0,1 km/h (0 Bft) 0 min
02.11.2013 01:45 21,6 C 5,6 C 4,9 C 99 % 0 % 1008 hPa 0,0 l/m 0,0 km/h (0 Bft) 0 min
02.11.2013 01:48 21,6 C 5,7 C 5,0 C 99 % 0 % 1007 hPa 0,0 l/m 0,0 km/h (0 Bft) 0 min
02.11.2013 01:51 21,6 C 5,7 C 5,1 C 99 % 0 % 1007 hPa 0,0 l/m 0,4 km/h (0 Bft) 0 min
02.11.2013 01:55 21,6 C 5,7 C 5,2 C 99 % 0 % 1007 hPa 0,0 l/m 3,0 km/h (1 Bft) 0 min
02.11.2013 01:58 21,6 C 5,7 C 5,2 C 99 % 0 % 1007 hPa 0,0 l/m 0,0 km/h (0 Bft) 0 min
02.11.2013 02:01 21,6 C 5,7 C 5,1 C 99 % 0 % 1007 hPa 0,0 l/m 0,0 km/h (0 Bft) 0 min
02.11.2013 02:04 21,6 C 5,7 C 5,1 C 99 % 0 % 1007 hPa 0,0 l/m 0,0 km/h (0 Bft) 0 min
02.11.2013 02:07 21,6 C 5,7 C 5,1 C 99 % 0 % 1007 hPa 0,0 l/m 0,0 km/h (0 Bft) 0 min
02.11.2013 02:10 21,6 C 5,7 C 5,1 C 99 % 0 % 1007 hPa 0,0 l/m 0,0 km/h (0 Bft) 0 min
02.11.2013 02:13 21,6 C 5,7 C 5,1 C 99 % 0 % 1007 hPa 0,0 l/m 0,0 km/h (0 Bft) 0 min
02.11.2013 02:16 21,6 C 5,7 C 5,1 C 99 % 0 % 1007 hPa 0,0 l/m 0,0 km/h (0 Bft) 0 min
02.11.2013 02:19 21,6 C 5,7 C 5,1 C 99 % 0 % 1007 hPa 0,0 l/m 0,0 km/h (0 Bft) 0 min
02.11.2013 02:22 21,6 C 5,7 C 5,1 C 99 % 0 % 1007 hPa 0,0 l/m 0,0 km/h (0 Bft) 0 min
02.11.2013 02:25 21,6 C 5,7 C 5,2 C 99 % 0 % 1007 hPa 0,0 l/m 0,0 km/h (0 Bft) 0 min
02.11.2013 02:28 21,6 C 5,7 C 5,1 C 99 % 0 % 1007 hPa 0,0 l/m 0,0 km/h (0 Bft) 0 min
02.11.2013 02:31 21,6 C 5,7 C 5,1 C 99 % 0 % 1007 hPa 0,0 l/m 0,0 km/h (0 Bft) 0 min
02.11.2013 02:34 21,6 C 5,7 C 5,3 C 99 % 0 % 1007 hPa 0,0 l/m 0,0 km/h (0 Bft) 0 min
02.11.2013 02:37 21,6 C 5,7 C 5,2 C 99 % 0 % 1007 hPa 0,0 l/m 0,0 km/h (0 Bft) 0 min
02.11.2013 02:40 21,6 C 5,7 C 5,2 C 99 % 0 % 1007 hPa 0,0 l/m 0,0 km/h (0 Bft) 0 min
02.11.2013 02:43 21,6 C 5,7 C 5,1 C 99 % 0 % 1007 hPa 0,0 l/m 0,0 km/h (0 Bft) 0 min
02.11.2013 02:46 21,6 C 6,0 C 5,3 C 99 % 0 % 1007 hPa 0,0 l/m 0,0 km/h (0 Bft) 0 min
02.11.2013 02:49 21,6 C 6,0 C 5,2 C 99 % 0 % 1007 hPa 0,0 l/m 0,1 km/h (0 Bft) 0 min
02.11.2013 02:52 21,6 C 6,0 C 5,4 C 99 % 0 % 1006 hPa 0,0 l/m 6,3 km/h (2 Bft) 0 min
02.11.2013 02:55 21,6 C 5,8 C 5,3 C 98 % 0 % 1006 hPa 0,0 l/m 5,5 km/h (1 Bft) 0 min
02.11.2013 02:58 21,6 C 5,6 C 5,2 C 98 % 0 % 1006 hPa 0,0 l/m 6,0 km/h (2 Bft) 0 min
02.11.2013 03:01 21,6 C 5,5 C 5,2 C 98 % 0 % 1006 hPa 0,0 l/m 6,0 km/h (2 Bft) 0 min
02.11.2013 03:04 21,6 C 5,5 C 5,1 C 98 % 0 % 1006 hPa 0,0 l/m 6,0 km/h (2 Bft) 0 min
02.11.2013 03:07 21,6 C 5,5 C 5,1 C 98 % 0 % 1006 hPa 0,0 l/m 0,0 km/h (0 Bft) 0 min
02.11.2013 03:10 21,6 C 5,4 C 5,1 C 99 % 0 % 1006 hPa 0,0 l/m 0,0 km/h (0 Bft) 0 min
02.11.2013 03:13 21,6 C 5,4 C 5,1 C 99 % 0 % 1006 hPa 0,0 l/m 3,8 km/h (1 Bft) 0 min
02.11.2013 03:16 21,6 C 5,4 C 5,0 C 99 % 0 % 1006 hPa 0,0 l/m 2,2 km/h (1 Bft) 0 min
02.11.2013 03:19 21,6 C 5,4 C 4,9 C 99 % 0 % 1006 hPa 0,0 l/m 0,0 km/h (0 Bft) 0 min
02.11.2013 03:22 21,6 C 5,5 C 5,0 C 99 % 0 % 1006 hPa 0,0 l/m 0,0 km/h (0 Bft) 0 min
02.11.2013 03:25 21,6 C 5,5 C 5,0 C 99 % 0 % 1006 hPa 0,0 l/m 0,0 km/h (0 Bft) 0 min
02.11.2013 03:28 21,6 C 5,5 C 5,0 C 99 % 0 % 1006 hPa 0,0 l/m 0,0 km/h (0 Bft) 0 min
02.11.2013 03:31 21,6 C 5,6 C 5,1 C 99 % 0 % 1006 hPa 0,0 l/m 0,1 km/h (0 Bft) 0 min
02.11.2013 03:34 21,6 C 5,6 C 5,0 C 99 % 0 % 1006 hPa 0,0 l/m 0,0 km/h (0 Bft) 0 min
02.11.2013 03:37 21,6 C 5,6 C 5,0 C 99 % 0 % 1006 hPa 0,0 l/m 0,0 km/h (0 Bft) 0 min
02.11.2013 03:40 21,6 C 5,6 C 5,1 C 99 % 0 % 1006 hPa 0,0 l/m 0,0 km/h (0 Bft) 0 min
02.11.2013 03:43 21,6 C 5,6 C 5,2 C 99 % 0 % 1006 hPa 0,0 l/m 0,0 km/h (0 Bft) 0 min
02.11.2013 03:46 21,5 C 5,7 C 5,2 C 99 % 0 % 1006 hPa 0,0 l/m 0,0 km/h (0 Bft) 0 min
02.11.2013 03:49 21,5 C 5,7 C 5,2 C 99 % 0 % 1006 hPa 0,0 l/m 0,0 km/h (0 Bft) 0 min
02.11.2013 03:52 21,5 C 5,7 C 5,3 C 99 % 0 % 1006 hPa 0,0 l/m 0,0 km/h (0 Bft) 0 min
02.11.2013 03:56 21,5 C 5,7 C 5,4 C 99 % 0 % 1006 hPa 0,0 l/m 0,0 km/h (0 Bft) 0 min
02.11.2013 03:59 21,6 C 5,7 C 5,4 C 99 % 0 % 1006 hPa 0,0 l/m 0,0 km/h (0 Bft) 0 min
02.11.2013 04:02 21,6 C 5,7 C 5,4 C 99 % 0 % 1006 hPa 0,0 l/m 0,0 km/h (0 Bft) 0 min
02.11.2013 04:05 21,5 C 5,8 C 5,6 C 99 % 0 % 1006 hPa 0,0 l/m 0,0 km/h (0 Bft) 0 min
02.11.2013 04:08 21,5 C 5,8 C 5,6 C 99 % 0 % 1006 hPa 0,0 l/m 0,0 km/h (0 Bft) 0 min
02.11.2013 04:11 21,5 C 5,8 C 5,6 C 99 % 0 % 1006 hPa 0,0 l/m 2,7 km/h (1 Bft) 0 min
02.11.2013 04:14 21,5 C 5,8 C 5,7 C 99 % 0 % 1006 hPa 0,0 l/m 2,7 km/h (1 Bft) 0 min
02.11.2013 04:17 21,6 C 5,8 C 5,7 C 99 % 0 % 1005 hPa 0,0 l/m 4,3 km/h (1 Bft) 0 min
02.11.2013 04:20 21,5 C 5,7 C 5,6 C 99 % 0 % 1005 hPa 0,0 l/m 4,3 km/h (1 Bft) 0 min
02.11.2013 04:23 21,6 C 5,7 C 5,6 C 99 % 0 % 1005 hPa 0,0 l/m 1,2 km/h (1 Bft) 0 min
02.11.2013 04:26 21,6 C 5,7 C 5,6 C 99 % 0 % 1005 hPa 0,0 l/m 0,5 km/h (0 Bft) 0 min
02.11.2013 04:29 21,6 C 5,8 C 5,6 C 99 % 0 % 1005 hPa 0,0 l/m 0,0 km/h (0 Bft) 0 min
02.11.2013 04:32 21,6 C 5,8 C 5,6 C 99 % 0 % 1005 hPa 0,0 l/m 0,0 km/h (0 Bft) 0 min
02.11.2013 04:35 21,6 C 5,8 C 5,6 C 99 % 0 % 1005 hPa 0,0 l/m 0,3 km/h (0 Bft) 0 min
02.11.2013 04:38 21,6 C 5,8 C 5,6 C 99 % 0 % 1005 hPa 0,0 l/m 1,9 km/h (1 Bft) 0 min
02.11.2013 04:41 21,6 C 5,8 C 5,6 C 99 % 0 % 1005 hPa 0,0 l/m 2,4 km/h (1 Bft) 0 min
02.11.2013 04:44 21,6 C 5,9 C 5,6 C 99 % 0 % 1005 hPa 0,0 l/m 0,0 km/h (0 Bft) 0 min
02.11.2013 04:47 21,6 C 5,9 C 5,6 C 99 % 0 % 1005 hPa 0,0 l/m 0,0 km/h (0 Bft) 0 min
02.11.2013 04:50 21,6 C 5,9 C 5,6 C 99 % 0 % 1005 hPa 0,0 l/m 0,0 km/h (0 Bft) 0 min
02.11.2013 04:53 21,6 C 5,9 C 5,6 C 99 % 0 % 1005 hPa 0,0 l/m 0,0 km/h (0 Bft) 0 min
02.11.2013 04:56 21,6 C 6,0 C 5,7 C 99 % 0 % 1005 hPa 0,0 l/m 0,0 km/h (0 Bft) 0 min
02.11.2013 04:59 21,6 C 6,0 C 5,7 C 99 % 0 % 1005 hPa 0,0 l/m 0,0 km/h (0 Bft) 0 min
02.11.2013 05:02 21,6 C 6,0 C 5,6 C 99 % 0 % 1005 hPa 0,0 l/m 0,0 km/h (0 Bft) 0 min
02.11.2013 05:05 21,6 C 6,0 C 5,7 C 99 % 0 % 1005 hPa 0,0 l/m 0,0 km/h (0 Bft) 0 min
02.11.2013 05:08 21,6 C 6,0 C 5,7 C 99 % 0 % 1005 hPa 0,0 l/m 0,0 km/h (0 Bft) 0 min
02.11.2013 05:11 21,6 C 5,9 C 5,7 C 99 % 0 % 1005 hPa 0,0 l/m 0,1 km/h (0 Bft) 0 min
02.11.2013 05:14 21,6 C 5,9 C 5,7 C 99 % 0 % 1005 hPa 0,0 l/m 1,9 km/h (1 Bft) 0 min
02.11.2013 05:17 21,6 C 5,8 C 5,7 C 99 % 0 % 1005 hPa 0,0 l/m 2,9 km/h (1 Bft) 0 min
02.11.2013 05:20 21,6 C 5,8 C 5,6 C 99 % 0 % 1005 hPa 0,0 l/m 0,0 km/h (0 Bft) 0 min
02.11.2013 05:23 21,6 C 5,8 C 5,6 C 99 % 0 % 1005 hPa 0,0 l/m 0,0 km/h (0 Bft) 0 min
02.11.2013 05:26 21,6 C 5,8 C 5,6 C 99 % 0 % 1005 hPa 0,0 l/m 0,0 km/h (0 Bft) 0 min
02.11.2013 05:29 21,6 C 5,8 C 5,6 C 99 % 0 % 1005 hPa 0,0 l/m 0,0 km/h (0 Bft) 0 min
02.11.2013 05:32 21,6 C 5,8 C 5,6 C 99 % 0 % 1005 hPa 0,0 l/m 0,1 km/h (0 Bft) 0 min
02.11.2013 05:35 21,6 C 5,9 C 5,6 C 99 % 0 % 1005 hPa 0,0 l/m 0,0 km/h (0 Bft) 0 min
02.11.2013 05:38 21,6 C 5,9 C 5,6 C 99 % 0 % 1005 hPa 0,0 l/m 0,5 km/h (0 Bft) 0 min
02.11.2013 05:41 21,6 C 5,9 C 5,7 C 99 % 0 % 1005 hPa 0,0 l/m 0,8 km/h (0 Bft) 0 min
02.11.2013 05:44 21,6 C 5,9 C 5,6 C 99 % 0 % 1005 hPa 0,0 l/m 0,2 km/h (0 Bft) 0 min
02.11.2013 05:47 21,6 C 5,9 C 5,7 C 99 % 0 % 1004 hPa 0,0 l/m 0,0 km/h (0 Bft) 0 min
02.11.2013 05:50 21,6 C 5,9 C 5,7 C 99 % 0 % 1004 hPa 0,0 l/m 0,0 km/h (0 Bft) 0 min
02.11.2013 05:53 21,6 C 5,9 C 5,7 C 99 % 0 % 1004 hPa 0,0 l/m 0,0 km/h (0 Bft) 0 min
02.11.2013 05:56 21,6 C 5,9 C 5,6 C 99 % 0 % 1004 hPa 0,0 l/m 0,0 km/h (0 Bft) 0 min
02.11.2013 05:59 21,6 C 5,9 C 5,6 C 99 % 0 % 1004 hPa 0,0 l/m 0,0 km/h (0 Bft) 0 min
02.11.2013 06:02 21,6 C 5,9 C 5,6 C 99 % 0 % 1004 hPa 0,0 l/m 0,0 km/h (0 Bft) 0 min
02.11.2013 06:05 21,6 C 5,9 C 5,7 C 99 % 0 % 1004 hPa 0,0 l/m 0,3 km/h (0 Bft) 0 min
02.11.2013 06:08 21,6 C 6,0 C 5,7 C 99 % 0 % 1004 hPa 0,0 l/m 3,3 km/h (1 Bft) 0 min
02.11.2013 06:11 21,6 C 6,0 C 5,6 C 99 % 0 % 1004 hPa 0,0 l/m 3,6 km/h (1 Bft) 0 min
02.11.2013 06:14 21,6 C 6,0 C 5,4 C 99 % 0 % 1004 hPa 0,0 l/m 0,0 km/h (0 Bft) 0 min
02.11.2013 06:17 21,6 C 6,0 C 5,3 C 99 % 0 % 1004 hPa 0,0 l/m 0,0 km/h (0 Bft) 0 min
02.11.2013 06:20 21,6 C 6,0 C 5,2 C 99 % 0 % 1004 hPa 0,0 l/m 0,0 km/h (0 Bft) 0 min
02.11.2013 06:23 21,6 C 6,0 C 5,2 C 99 % 0 % 1004 hPa 0,0 l/m 0,1 km/h (0 Bft) 0 min
02.11.2013 06:26 21,6 C 6,0 C 5,4 C 99 % 0 % 1004 hPa 0,0 l/m 2,4 km/h (1 Bft) 0 min
02.11.2013 06:29 21,6 C 6,0 C 5,5 C 99 % 0 % 1004 hPa 0,0 l/m 5,4 km/h (1 Bft) 0 min
02.11.2013 06:32 21,6 C 6,1 C 5,8 C 99 % 0 % 1004 hPa 0,0 l/m 6,8 km/h (2 Bft) 0 min
02.11.2013 06:35 21,6 C 6,1 C 5,9 C 99 % 0 % 1004 hPa 0,0 l/m 6,2 km/h (2 Bft) 0 min
02.11.2013 06:38 21,6 C 6,1 C 5,8 C 99 % 0 % 1004 hPa 0,0 l/m 6,2 km/h (2 Bft) 0 min
02.11.2013 06:41 21,6 C 6,0 C 5,7 C 99 % 0 % 1004 hPa 0,0 l/m 4,9 km/h (1 Bft) 0 min
02.11.2013 06:44 21,6 C 6,0 C 5,7 C 99 % 0 % 1004 hPa 0,0 l/m 4,2 km/h (1 Bft) 0 min
02.11.2013 06:47 21,6 C 6,0 C 5,6 C 99 % 0 % 1004 hPa 0,0 l/m 3,1 km/h (1 Bft) 0 min
02.11.2013 06:50 21,6 C 6,1 C 5,6 C 99 % 0 % 1004 hPa 0,0 l/m 3,5 km/h (1 Bft) 0 min
02.11.2013 06:53 21,6 C 6,1 C 5,7 C 99 % 0 % 1004 hPa 0,0 l/m 2,3 km/h (1 Bft) 0 min
02.11.2013 06:56 21,6 C 6,2 C 5,8 C 99 % 1 % 1004 hPa 0,0 l/m 3,9 km/h (1 Bft) 0 min
02.11.2013 06:59 21,6 C 6,2 C 5,7 C 99 % 1 % 1004 hPa 0,0 l/m 0,3 km/h (0 Bft) 0 min
02.11.2013 07:02 21,6 C 6,3 C 5,7 C 99 % 1 % 1004 hPa 0,0 l/m 0,2 km/h (0 Bft) 0 min
02.11.2013 07:05 21,6 C 6,3 C 5,8 C 99 % 1 % 1004 hPa 0,0 l/m 4,2 km/h (1 Bft) 0 min
02.11.2013 07:08 21,7 C 6,3 C 5,8 C 99 % 2 % 1004 hPa 0,0 l/m 4,4 km/h (1 Bft) 0 min
02.11.2013 07:11 21,7 C 6,4 C 6,0 C 99 % 3 % 1004 hPa 0,0 l/m 2,1 km/h (1 Bft) 0 min
02.11.2013 07:14 21,7 C 6,5 C 6,2 C 99 % 4 % 1004 hPa 0,0 l/m 0,6 km/h (0 Bft) 0 min
02.11.2013 07:17 21,6 C 6,5 C 6,3 C 99 % 4 % 1004 hPa 0,0 l/m 2,6 km/h (1 Bft) 0 min
02.11.2013 07:20 21,7 C 6,6 C 6,5 C 99 % 3 % 1004 hPa 0,0 l/m 2,6 km/h (1 Bft) 0 min
02.11.2013 07:23 21,6 C 6,7 C 6,5 C 99 % 3 % 1004 hPa 0,0 l/m 4,8 km/h (1 Bft) 0 min
02.11.2013 07:26 21,7 C 6,7 C 6,5 C 99 % 3 % 1004 hPa 0,0 l/m 2,4 km/h (1 Bft) 0 min
02.11.2013 07:29 21,7 C 6,7 C 6,6 C 99 % 3 % 1004 hPa 0,0 l/m 0,0 km/h (0 Bft) 0 min
02.11.2013 07:32 21,6 C 6,7 C 6,7 C 99 % 3 % 1004 hPa 0,0 l/m 0,6 km/h (0 Bft) 0 min
02.11.2013 07:35 21,7 C 6,7 C 6,7 C 99 % 3 % 1004 hPa 0,0 l/m 2,1 km/h (1 Bft) 0 min
02.11.2013 07:38 21,7 C 6,7 C 6,7 C 99 % 3 % 1004 hPa 0,0 l/m 4,8 km/h (1 Bft) 0 min
02.11.2013 07:41 21,7 C 6,7 C 6,6 C 99 % 3 % 1004 hPa 0,0 l/m 5,1 km/h (1 Bft) 0 min
02.11.2013 07:44 21,6 C 6,7 C 6,6 C 99 % 4 % 1004 hPa 0,0 l/m 4,0 km/h (1 Bft) 0 min
02.11.2013 07:47 21,1 C 6,7 C 6,6 C 99 % 4 % 1004 hPa 0,0 l/m 4,2 km/h (1 Bft) 0 min
02.11.2013 07:50 20,9 C 6,6 C 6,7 C 99 % 5 % 1004 hPa 0,0 l/m 4,5 km/h (1 Bft) 0 min
02.11.2013 07:53 21,0 C 6,6 C 6,7 C 99 % 5 % 1005 hPa 0,0 l/m 0,0 km/h (0 Bft) 0 min
02.11.2013 07:56 21,0 C 6,7 C 6,9 C 99 % 5 % 1005 hPa 0,0 l/m 0,0 km/h (0 Bft) 0 min
02.11.2013 07:59 21,2 C 6,7 C 6,9 C 99 % 5 % 1004 hPa 0,0 l/m 0,0 km/h (0 Bft) 0 min
02.11.2013 08:02 21,3 C 6,7 C 7,0 C 99 % 6 % 1004 hPa 0,0 l/m 0,0 km/h (0 Bft) 0 min
02.11.2013 08:05 21,4 C 6,7 C 7,0 C 99 % 6 % 1004 hPa 0,0 l/m 0,0 km/h (0 Bft) 0 min
02.11.2013 08:08 21,4 C 6,7 C 7,0 C 99 % 6 % 1004 hPa 0,0 l/m 0,0 km/h (0 Bft) 0 min
02.11.2013 08:11 21,4 C 6,8 C 7,1 C 99 % 6 % 1004 hPa 0,0 l/m 0,9 km/h (0 Bft) 0 min
02.11.2013 08:14 21,5 C 6,8 C 7,1 C 99 % 6 % 1004 hPa 0,0 l/m 0,9 km/h (0 Bft) 0 min
02.11.2013 08:17 21,5 C 6,8 C 7,1 C 99 % 5 % 1005 hPa 0,0 l/m 0,9 km/h (0 Bft) 0 min
02.11.2013 08:20 21,5 C 6,8 C 7,0 C 99 % 5 % 1005 hPa 0,0 l/m 4,9 km/h (1 Bft) 0 min
02.11.2013 08:23 21,6 C 6,8 C 7,1 C 99 % 5 % 1005 hPa 0,0 l/m 4,9 km/h (1 Bft) 0 min
02.11.2013 08:26 21,6 C 6,8 C 7,2 C 99 % 5 % 1005 hPa 0,0 l/m 0,0 km/h (0 Bft) 0 min
02.11.2013 08:29 21,6 C 6,8 C 7,2 C 99 % 5 % 1005 hPa 0,0 l/m 0,0 km/h (0 Bft) 0 min
02.11.2013 08:32 21,5 C 6,8 C 7,1 C 99 % 5 % 1005 hPa 0,0 l/m 1,6 km/h (1 Bft) 0 min
02.11.2013 08:35 21,5 C 6,8 C 7,2 C 99 % 6 % 1005 hPa 0,0 l/m 0,6 km/h (0 Bft) 0 min
02.11.2013 08:38 21,6 C 6,9 C 7,4 C 99 % 7 % 1005 hPa 0,0 l/m 0,3 km/h (0 Bft) 0 min
02.11.2013 08:41 21,5 C 6,9 C 7,4 C 99 % 8 % 1005 hPa 0,0 l/m 0,0 km/h (0 Bft) 0 min
02.11.2013 08:44 21,6 C 7,0 C 7,5 C 99 % 9 % 1005 hPa 0,0 l/m 3,1 km/h (1 Bft) 0 min
02.11.2013 08:47 21,6 C 7,0 C 7,6 C 99 % 10 % 1005 hPa 0,0 l/m 3,0 km/h (1 Bft) 0 min
02.11.2013 08:50 21,5 C 7,0 C 7,7 C 99 % 11 % 1005 hPa 0,0 l/m 0,7 km/h (0 Bft) 0 min
02.11.2013 08:53 21,5 C 7,0 C 7,8 C 99 % 10 % 1005 hPa 0,0 l/m 1,8 km/h (1 Bft) 0 min
02.11.2013 08:56 21,5 C 7,1 C 7,9 C 99 % 10 % 1005 hPa 0,0 l/m 0,0 km/h (0 Bft) 0 min
02.11.2013 08:59 21,5 C 7,1 C 7,8 C 99 % 10 % 1005 hPa 0,0 l/m 0,0 km/h (0 Bft) 0 min
02.11.2013 09:02 21,5 C 7,1 C 7,8 C 99 % 10 % 1005 hPa 0,0 l/m 0,0 km/h (0 Bft) 0 min
02.11.2013 09:05 21,5 C 7,2 C 8,0 C 99 % 10 % 1005 hPa 0,0 l/m 0,0 km/h (0 Bft) 0 min
02.11.2013 09:08 21,5 C 7,2 C 8,0 C 99 % 9 % 1005 hPa 0,0 l/m 0,1 km/h (0 Bft) 0 min
02.11.2013 09:11 21,5 C 7,2 C 7,9 C 99 % 9 % 1005 hPa 0,0 l/m 2,2 km/h (1 Bft) 0 min
02.11.2013 09:14 21,5 C 7,3 C 7,8 C 99 % 10 % 1005 hPa 0,0 l/m 0,3 km/h (0 Bft) 0 min
02.11.2013 09:17 21,6 C 7,3 C 8,0 C 99 % 12 % 1005 hPa 0,0 l/m 0,0 km/h (0 Bft) 0 min
02.11.2013 09:20 21,5 C 7,3 C 8,0 C 99 % 12 % 1005 hPa 0,0 l/m 0,5 km/h (0 Bft) 0 min
02.11.2013 09:23 21,5 C 7,3 C 8,0 C 99 % 12 % 1005 hPa 0,0 l/m 0,0 km/h (0 Bft) 0 min
02.11.2013 09:26 21,5 C 7,3 C 8,1 C 99 % 13 % 1005 hPa 0,0 l/m 5,0 km/h (1 Bft) 0 min
02.11.2013 09:29 21,5 C 7,3 C 8,2 C 99 % 13 % 1005 hPa 0,0 l/m 3,6 km/h (1 Bft) 0 min
02.11.2013 09:32 21,5 C 7,4 C 8,3 C 99 % 13 % 1005 hPa 0,0 l/m 1,1 km/h (1 Bft) 0 min
02.11.2013 09:35 21,5 C 7,4 C 8,4 C 99 % 13 % 1005 hPa 0,0 l/m 0,0 km/h (0 Bft) 0 min
02.11.2013 09:38 21,5 C 7,4 C 8,4 C 99 % 13 % 1005 hPa 0,0 l/m 0,3 km/h (0 Bft) 0 min
02.11.2013 09:41 21,5 C 7,4 C 8,2 C 99 % 13 % 1005 hPa 0,0 l/m 0,0 km/h (0 Bft) 0 min
02.11.2013 09:44 21,4 C 7,5 C 8,2 C 99 % 13 % 1005 hPa 0,0 l/m 0,0 km/h (0 Bft) 0 min
02.11.2013 09:47 21,5 C 7,5 C 8,3 C 99 % 13 % 1005 hPa 0,0 l/m 0,0 km/h (0 Bft) 0 min
02.11.2013 09:50 21,4 C 7,5 C 8,7 C 99 % 14 % 1005 hPa 0,0 l/m 0,0 km/h (0 Bft) 0 min
02.11.2013 09:53 21,5 C 7,6 C 8,7 C 99 % 15 % 1005 hPa 0,0 l/m 0,0 km/h (0 Bft) 0 min
02.11.2013 09:56 21,5 C 7,6 C 8,8 C 99 % 17 % 1005 hPa 0,0 l/m 0,0 km/h (0 Bft) 0 min
02.11.2013 09:59 21,5 C 7,7 C 9,0 C 99 % 17 % 1005 hPa 0,0 l/m 0,0 km/h (0 Bft) 0 min
02.11.2013 10:02 21,5 C 7,8 C 9,2 C 99 % 18 % 1005 hPa 0,0 l/m 0,0 km/h (0 Bft) 0 min
02.11.2013 10:05 21,5 C 7,8 C 9,2 C 99 % 20 % 1005 hPa 0,0 l/m 1,8 km/h (1 Bft) 0 min
02.11.2013 10:08 21,5 C 7,8 C 9,2 C 99 % 22 % 1005 hPa 0,0 l/m 3,1 km/h (1 Bft) 0 min
02.11.2013 10:11 21,5 C 7,9 C 9,3 C 99 % 24 % 1005 hPa 0,0 l/m 5,1 km/h (1 Bft) 0 min
02.11.2013 10:14 21,5 C 7,9 C 9,6 C 99 % 22 % 1005 hPa 0,0 l/m 5,1 km/h (1 Bft) 0 min
02.11.2013 10:17 21,5 C 8,0 C 9,6 C 99 % 21 % 1005 hPa 0,0 l/m 1,3 km/h (1 Bft) 0 min
02.11.2013 10:20 21,5 C 8,0 C 9,7 C 99 % 22 % 1005 hPa 0,0 l/m 0,0 km/h (0 Bft) 0 min
02.11.2013 10:23 21,4 C 8,0 C 9,5 C 99 % 24 % 1005 hPa 0,0 l/m 0,0 km/h (0 Bft) 0 min
02.11.2013 10:26 21,4 C 8,1 C 9,7 C 99 % 26 % 1005 hPa 0,0 l/m 0,0 km/h (0 Bft) 0 min
02.11.2013 10:29 21,5 C 8,1 C 9,9 C 99 % 26 % 1005 hPa 0,0 l/m 0,1 km/h (0 Bft) 0 min
02.11.2013 10:32 21,5 C 8,2 C 9,8 C 99 % 26 % 1005 hPa 0,0 l/m 0,1 km/h (0 Bft) 0 min
02.11.2013 10:35 21,5 C 8,3 C 10,1 C 99 % 27 % 1005 hPa 0,0 l/m 0,6 km/h (0 Bft) 0 min
02.11.2013 10:38 21,5 C 8,4 C 9,8 C 99 % 30 % 1005 hPa 0,0 l/m 0,3 km/h (0 Bft) 0 min
02.11.2013 10:41 21,5 C 8,5 C 9,9 C 99 % 31 % 1005 hPa 0,0 l/m 0,3 km/h (0 Bft) 0 min
02.11.2013 10:44 21,5 C 8,5 C 10,0 C 99 % 30 % 1005 hPa 0,0 l/m 0,3 km/h (0 Bft) 0 min
02.11.2013 10:47 21,5 C 8,6 C 10,1 C 99 % 30 % 1005 hPa 0,0 l/m 3,5 km/h (1 Bft) 0 min
02.11.2013 10:50 21,5 C 8,6 C 10,2 C 99 % 24 % 1005 hPa 0,0 l/m 1,1 km/h (1 Bft) 0 min
02.11.2013 10:53 21,5 C 8,6 C 10,4 C 99 % 23 % 1005 hPa 0,0 l/m 2,9 km/h (1 Bft) 0 min
02.11.2013 10:56 21,5 C 8,7 C 10,3 C 99 % 22 % 1005 hPa 0,0 l/m 0,7 km/h (0 Bft) 0 min
02.11.2013 10:59 21,5 C 8,7 C 10,3 C 99 % 23 % 1005 hPa 0,0 l/m 3,7 km/h (1 Bft) 0 min
02.11.2013 11:02 21,4 C 8,7 C 10,3 C 98 % 24 % 1005 hPa 0,0 l/m 4,2 km/h (1 Bft) 0 min
02.11.2013 11:05 21,5 C 8,8 C 10,4 C 98 % 24 % 1005 hPa 0,0 l/m 3,4 km/h (1 Bft) 0 min
02.11.2013 11:08 21,5 C 8,9 C 10,3 C 98 % 26 % 1005 hPa 0,0 l/m 6,0 km/h (2 Bft) 0 min
02.11.2013 11:11 21,5 C 8,9 C 10,4 C 98 % 26 % 1005 hPa 0,0 l/m 6,5 km/h (2 Bft) 0 min
02.11.2013 11:14 21,5 C 9,0 C 10,5 C 98 % 26 % 1005 hPa 0,0 l/m 5,2 km/h (1 Bft) 0 min
02.11.2013 11:17 21,4 C 9,0 C 10,5 C 98 % 23 % 1005 hPa 0,0 l/m 6,3 km/h (2 Bft) 0 min
02.11.2013 11:20 21,4 C 9,1 C 10,3 C 98 % 20 % 1005 hPa 0,0 l/m 1,2 km/h (1 Bft) 0 min
02.11.2013 11:23 21,5 C 9,0 C 10,2 C 98 % 23 % 1005 hPa 0,0 l/m 3,1 km/h (1 Bft) 0 min
02.11.2013 11:26 21,5 C 9,0 C 10,0 C 98 % 25 % 1005 hPa 0,0 l/m 8,3 km/h (2 Bft) 0 min
02.11.2013 11:29 21,5 C 8,9 C 10,0 C 98 % 28 % 1005 hPa 0,0 l/m 12,3 km/h (3 Bft) 0 min
02.11.2013 11:32 21,4 C 8,9 C 10,2 C 98 % 32 % 1005 hPa 0,0 l/m 10,3 km/h (2 Bft) 0 min
02.11.2013 11:35 21,5 C 8,9 C 10,3 C 98 % 33 % 1004 hPa 0,0 l/m 12,5 km/h (3 Bft) 0 min
02.11.2013 11:38 21,4 C 8,9 C 10,3 C 98 % 28 % 1005 hPa 0,0 l/m 8,3 km/h (2 Bft) 0 min
02.11.2013 11:41 21,5 C 8,9 C 10,4 C 98 % 32 % 1004 hPa 0,0 l/m 9,5 km/h (2 Bft) 0 min
02.11.2013 11:44 21,5 C 9,0 C 10,6 C 98 % 35 % 1004 hPa 0,0 l/m 7,2 km/h (2 Bft) 0 min
02.11.2013 11:47 21,5 C 9,1 C 10,8 C 98 % 35 % 1004 hPa 0,0 l/m 8,3 km/h (2 Bft) 0 min
02.11.2013 11:50 21,4 C 9,2 C 11,1 C 98 % 35 % 1004 hPa 0,0 l/m 4,6 km/h (1 Bft) 0 min
02.11.2013 11:53 21,5 C 9,3 C 10,8 C 98 % 31 % 1004 hPa 0,0 l/m 5,9 km/h (2 Bft) 0 min
02.11.2013 11:56 21,5 C 9,3 C 10,3 C 98 % 31 % 1004 hPa 0,0 l/m 4,3 km/h (1 Bft) 0 min
02.11.2013 11:59 21,5 C 9,3 C 10,2 C 98 % 34 % 1004 hPa 0,0 l/m 8,2 km/h (2 Bft) 0 min
02.11.2013 12:02 21,5 C 9,3 C 10,9 C 98 % 35 % 1004 hPa 0,0 l/m 7,0 km/h (2 Bft) 0 min
02.11.2013 12:05 21,5 C 9,4 C 11,1 C 98 % 35 % 1004 hPa 0,0 l/m 3,3 km/h (1 Bft) 0 min
02.11.2013 12:08 21,5 C 9,5 C 10,9 C 98 % 25 % 1004 hPa 0,0 l/m 4,0 km/h (1 Bft) 0 min
02.11.2013 12:11 21,5 C 9,5 C 10,7 C 98 % 30 % 1004 hPa 0,0 l/m 0,9 km/h (0 Bft) 0 min
02.11.2013 12:14 21,5 C 9,5 C 10,7 C 98 % 33 % 1004 hPa 0,0 l/m 4,2 km/h (1 Bft) 0 min
02.11.2013 12:17 21,5 C 9,5 C 11,2 C 98 % 33 % 1004 hPa 0,0 l/m 1,5 km/h (1 Bft) 0 min
02.11.2013 12:20 21,5 C 9,5 C 10,9 C 98 % 32 % 1004 hPa 0,0 l/m 1,2 km/h (1 Bft) 0 min
02.11.2013 12:23 21,5 C 9,6 C 11,1 C 97 % 31 % 1004 hPa 0,0 l/m 1,5 km/h (1 Bft) 0 min
02.11.2013 12:26 21,5 C 9,7 C 11,7 C 97 % 31 % 1004 hPa 0,0 l/m 10,4 km/h (2 Bft) 0 min
02.11.2013 12:29 21,5 C 9,9 C 12,6 C 97 % 31 % 1004 hPa 0,0 l/m 2,1 km/h (1 Bft) 0 min
02.11.2013 12:32 21,5 C 10,0 C 12,3 C 97 % 31 % 1004 hPa 0,0 l/m 3,9 km/h (1 Bft) 0 min
02.11.2013 12:35 21,5 C 10,1 C 12,2 C 97 % 31 % 1004 hPa 0,0 l/m 2,5 km/h (1 Bft) 0 min
02.11.2013 12:38 21,6 C 10,1 C 11,8 C 97 % 31 % 1004 hPa 0,0 l/m 1,4 km/h (1 Bft) 0 min
02.11.2013 12:41 21,6 C 10,1 C 11,8 C 97 % 35 % 1004 hPa 0,0 l/m 5,2 km/h (1 Bft) 0 min
02.11.2013 12:44 21,6 C 10,1 C 11,9 C 97 % 36 % 1004 hPa 0,0 l/m 6,9 km/h (2 Bft) 0 min
02.11.2013 12:47 21,7 C 10,2 C 11,9 C 97 % 32 % 1004 hPa 0,0 l/m 3,0 km/h (1 Bft) 0 min
02.11.2013 12:50 21,7 C 10,2 C 12,1 C 97 % 26 % 1004 hPa 0,0 l/m 4,3 km/h (1 Bft) 0 min
02.11.2013 12:53 21,7 C 10,2 C 11,6 C 96 % 22 % 1004 hPa 0,0 l/m 4,3 km/h (1 Bft) 0 min
02.11.2013 12:56 21,7 C 10,2 C 11,6 C 96 % 24 % 1004 hPa 0,0 l/m 5,8 km/h (2 Bft) 0 min
02.11.2013 12:59 21,7 C 10,2 C 11,7 C 96 % 26 % 1004 hPa 0,0 l/m 6,8 km/h (2 Bft) 0 min
02.11.2013 13:02 21,7 C 10,3 C 12,1 C 96 % 31 % 1004 hPa 0,0 l/m 5,5 km/h (1 Bft) 0 min
02.11.2013 13:05 21,7 C 10,4 C 12,3 C 96 % 31 % 1004 hPa 0,0 l/m 7,8 km/h (2 Bft) 0 min
02.11.2013 13:08 21,7 C 10,4 C 12,5 C 96 % 31 % 1004 hPa 0,0 l/m 7,8 km/h (2 Bft) 0 min
02.11.2013 13:11 21,7 C 10,5 C 12,3 C 96 % 59 % 1004 hPa 0,0 l/m 8,3 km/h (2 Bft) 3 min
02.11.2013 13:14 21,7 C 10,5 C 12,0 C 96 % 59 % 1004 hPa 0,0 l/m 7,6 km/h (2 Bft) 3 min
02.11.2013 13:17 21,7 C 10,5 C 12,0 C 95 % 59 % 1004 hPa 0,0 l/m 6,1 km/h (2 Bft) 3 min
02.11.2013 13:20 21,7 C 10,6 C 12,2 C 95 % 52 % 1004 hPa 0,0 l/m 4,3 km/h (1 Bft) 0 min
02.11.2013 13:23 21,7 C 10,6 C 11,8 C 95 % 52 % 1004 hPa 0,0 l/m 8,3 km/h (2 Bft) 0 min
02.11.2013 13:26 21,7 C 10,7 C 11,9 C 95 % 85 % 1004 hPa 0,0 l/m 6,7 km/h (2 Bft) 3 min
02.11.2013 13:29 21,7 C 10,7 C 12,0 C 95 % 85 % 1004 hPa 0,0 l/m 6,8 km/h (2 Bft) 3 min
02.11.2013 13:32 21,7 C 10,8 C 11,7 C 94 % 85 % 1004 hPa 0,0 l/m 5,4 km/h (1 Bft) 3 min
02.11.2013 13:35 21,7 C 10,8 C 11,6 C 94 % 85 % 1004 hPa 0,0 l/m 8,9 km/h (2 Bft) 3 min
02.11.2013 13:38 21,7 C 10,9 C 11,7 C 94 % 85 % 1003 hPa 0,0 l/m 5,4 km/h (1 Bft) 3 min
02.11.2013 13:41 21,7 C 11,0 C 11,7 C 94 % 85 % 1003 hPa 0,0 l/m 8,7 km/h (2 Bft) 3 min
02.11.2013 13:44 21,7 C 11,1 C 11,7 C 94 % 85 % 1003 hPa 0,0 l/m 4,9 km/h (1 Bft) 3 min
02.11.2013 13:47 21,7 C 11,2 C 11,7 C 94 % 85 % 1003 hPa 0,0 l/m 4,9 km/h (1 Bft) 3 min
02.11.2013 13:50 21,7 C 11,3 C 11,6 C 93 % 100 % 1003 hPa 0,0 l/m 7,1 km/h (2 Bft) 3 min
02.11.2013 13:53 21,7 C 11,3 C 11,1 C 93 % 100 % 1003 hPa 0,0 l/m 8,8 km/h (2 Bft) 3 min
02.11.2013 13:56 21,7 C 11,3 C 11,2 C 93 % 100 % 1003 hPa 0,0 l/m 5,4 km/h (1 Bft) 3 min
02.11.2013 13:59 21,6 C 11,3 C 10,9 C 93 % 35 % 1003 hPa 0,0 l/m 4,5 km/h (1 Bft) 0 min
02.11.2013 14:02 21,7 C 11,3 C 11,0 C 93 % 35 % 1003 hPa 0,0 l/m 5,5 km/h (1 Bft) 0 min
02.11.2013 14:05 21,7 C 11,4 C 10,7 C 93 % 27 % 1004 hPa 0,0 l/m 5,9 km/h (2 Bft) 0 min
02.11.2013 14:08 21,7 C 11,3 C 10,8 C 93 % 27 % 1004 hPa 0,0 l/m 4,8 km/h (1 Bft) 0 min
02.11.2013 14:11 21,7 C 11,4 C 11,1 C 93 % 27 % 1004 hPa 0,0 l/m 3,5 km/h (1 Bft) 0 min
02.11.2013 14:14 21,7 C 11,4 C 11,3 C 93 % 27 % 1004 hPa 0,0 l/m 6,8 km/h (2 Bft) 0 min
02.11.2013 14:17 21,7 C 11,5 C 11,7 C 92 % 27 % 1003 hPa 0,0 l/m 8,3 km/h (2 Bft) 0 min
02.11.2013 14:20 21,7 C 11,6 C 11,9 C 92 % 33 % 1003 hPa 0,0 l/m 7,6 km/h (2 Bft) 0 min
02.11.2013 14:23 21,6 C 11,6 C 11,7 C 92 % 27 % 1003 hPa 0,0 l/m 5,2 km/h (1 Bft) 0 min
02.11.2013 14:26 21,7 C 11,6 C 12,0 C 92 % 28 % 1004 hPa 0,0 l/m 3,6 km/h (1 Bft) 0 min
02.11.2013 14:29 21,6 C 11,6 C 12,3 C 92 % 28 % 1004 hPa 0,0 l/m 6,7 km/h (2 Bft) 0 min
02.11.2013 14:32 21,6 C 11,6 C 12,5 C 92 % 24 % 1003 hPa 0,0 l/m 5,6 km/h (1 Bft) 0 min
02.11.2013 14:35 21,7 C 11,7 C 12,6 C 92 % 24 % 1003 hPa 0,0 l/m 7,3 km/h (2 Bft) 0 min
02.11.2013 14:38 21,6 C 11,7 C 12,4 C 92 % 32 % 1003 hPa 0,0 l/m 9,9 km/h (2 Bft) 0 min
02.11.2013 14:41 21,6 C 11,8 C 12,6 C 92 % 32 % 1003 hPa 0,0 l/m 7,9 km/h (2 Bft) 0 min
02.11.2013 14:44 21,6 C 11,8 C 12,1 C 92 % 25 % 1003 hPa 0,0 l/m 7,7 km/h (2 Bft) 0 min
02.11.2013 14:47 21,7 C 11,8 C 11,8 C 92 % 27 % 1003 hPa 0,0 l/m 5,9 km/h (2 Bft) 0 min
02.11.2013 14:50 21,6 C 11,8 C 12,0 C 92 % 28 % 1003 hPa 0,0 l/m 7,4 km/h (2 Bft) 0 min
02.11.2013 14:53 21,6 C 11,8 C 12,0 C 92 % 27 % 1003 hPa 0,0 l/m 6,3 km/h (2 Bft) 0 min
02.11.2013 14:56 21,6 C 11,8 C 12,2 C 92 % 27 % 1003 hPa 0,0 l/m 5,1 km/h (1 Bft) 0 min
02.11.2013 14:59 21,6 C 11,8 C 12,2 C 92 % 29 % 1004 hPa 0,0 l/m 4,0 km/h (1 Bft) 0 min
02.11.2013 15:02 21,6 C 11,8 C 12,3 C 92 % 29 % 1003 hPa 0,0 l/m 4,0 km/h (1 Bft) 0 min
02.11.2013 15:05 21,6 C 11,9 C 12,3 C 92 % 97 % 1003 hPa 0,0 l/m 1,5 km/h (1 Bft) 3 min
02.11.2013 15:08 21,6 C 11,9 C 12,3 C 92 % 97 % 1003 hPa 0,0 l/m 4,2 km/h (1 Bft) 3 min
02.11.2013 15:11 21,6 C 12,0 C 12,2 C 92 % 89 % 1003 hPa 0,0 l/m 3,9 km/h (1 Bft) 3 min
02.11.2013 15:14 21,6 C 12,0 C 12,2 C 92 % 85 % 1004 hPa 0,0 l/m 3,8 km/h (1 Bft) 3 min
02.11.2013 15:17 21,6 C 12,1 C 12,6 C 92 % 84 % 1004 hPa 0,0 l/m 6,2 km/h (2 Bft) 3 min
02.11.2013 15:20 21,6 C 12,1 C 12,6 C 92 % 84 % 1003 hPa 0,0 l/m 7,1 km/h (2 Bft) 3 min
02.11.2013 15:23 21,6 C 12,1 C 12,1 C 91 % 52 % 1004 hPa 0,0 l/m 3,5 km/h (1 Bft) 3 min
02.11.2013 15:26 21,6 C 12,1 C 12,1 C 91 % 56 % 1004 hPa 0,0 l/m 3,5 km/h (1 Bft) 3 min
02.11.2013 15:29 21,6 C 12,1 C 12,2 C 91 % 56 % 1004 hPa 0,0 l/m 6,4 km/h (2 Bft) 3 min
02.11.2013 15:32 21,6 C 12,1 C 12,5 C 91 % 56 % 1003 hPa 0,0 l/m 6,3 km/h (2 Bft) 3 min
02.11.2013 15:35 21,6 C 12,2 C 12,4 C 91 % 56 % 1003 hPa 0,0 l/m 5,9 km/h (2 Bft) 3 min
02.11.2013 15:38 21,6 C 12,2 C 12,3 C 91 % 22 % 1003 hPa 0,0 l/m 6,5 km/h (2 Bft) 0 min
02.11.2013 15:41 21,6 C 12,2 C 12,1 C 91 % 20 % 1003 hPa 0,0 l/m 4,0 km/h (1 Bft) 0 min
02.11.2013 15:44 21,6 C 12,2 C 11,9 C 91 % 20 % 1004 hPa 0,0 l/m 3,2 km/h (1 Bft) 0 min
02.11.2013 15:47 21,6 C 12,2 C 12,0 C 91 % 20 % 1004 hPa 0,0 l/m 4,7 km/h (1 Bft) 0 min
02.11.2013 15:50 21,6 C 12,2 C 12,0 C 91 % 20 % 1004 hPa 0,0 l/m 4,7 km/h (1 Bft) 0 min
02.11.2013 15:53 21,6 C 12,2 C 11,7 C 91 % 28 % 1004 hPa 0,0 l/m 2,5 km/h (1 Bft) 3 min
02.11.2013 15:56 21,6 C 12,1 C 11,5 C 92 % 28 % 1003 hPa 0,0 l/m 3,9 km/h (1 Bft) 3 min
02.11.2013 15:59 21,6 C 12,1 C 11,6 C 92 % 28 % 1003 hPa 0,0 l/m 4,0 km/h (1 Bft) 3 min
02.11.2013 16:02 21,6 C 12,1 C 11,5 C 92 % 28 % 1003 hPa 0,0 l/m 4,6 km/h (1 Bft) 3 min
02.11.2013 16:05 21,5 C 12,1 C 11,3 C 92 % 28 % 1003 hPa 0,0 l/m 0,7 km/h (0 Bft) 3 min
02.11.2013 16:08 21,6 C 12,1 C 11,2 C 92 % 11 % 1004 hPa 0,0 l/m 3,1 km/h (1 Bft) 0 min
02.11.2013 16:11 21,5 C 12,1 C 11,3 C 92 % 8 % 1004 hPa 0,0 l/m 1,1 km/h (1 Bft) 0 min
02.11.2013 16:14 21,6 C 12,1 C 11,1 C 92 % 8 % 1004 hPa 0,0 l/m 2,0 km/h (1 Bft) 0 min
02.11.2013 16:17 21,6 C 12,1 C 11,1 C 92 % 5 % 1004 hPa 0,0 l/m 1,7 km/h (1 Bft) 0 min
02.11.2013 16:20 21,6 C 12,1 C 11,1 C 92 % 4 % 1004 hPa 0,0 l/m 2,5 km/h (1 Bft) 0 min
02.11.2013 16:23 21,5 C 12,1 C 11,1 C 92 % 3 % 1004 hPa 0,0 l/m 2,7 km/h (1 Bft) 0 min
02.11.2013 16:26 21,6 C 12,0 C 11,0 C 92 % 3 % 1004 hPa 0,0 l/m 0,6 km/h (0 Bft) 0 min
02.11.2013 16:29 21,6 C 12,0 C 10,8 C 92 % 2 % 1004 hPa 0,0 l/m 0,6 km/h (0 Bft) 0 min
02.11.2013 16:32 21,6 C 11,9 C 10,7 C 92 % 2 % 1004 hPa 0,0 l/m 3,9 km/h (1 Bft) 0 min
02.11.2013 16:35 21,7 C 11,9 C 10,7 C 92 % 1 % 1004 hPa 0,0 l/m 0,1 km/h (0 Bft) 0 min
02.11.2013 16:38 21,7 C 11,9 C 10,6 C 92 % 1 % 1003 hPa 0,0 l/m 4,4 km/h (1 Bft) 0 min
02.11.2013 16:41 21,7 C 11,9 C 10,4 C 92 % 1 % 1003 hPa 0,0 l/m 0,3 km/h (0 Bft) 0 min
02.11.2013 16:44 21,8 C 11,9 C 10,5 C 92 % 1 % 1003 hPa 0,0 l/m 0,0 km/h (0 Bft) 0 min
02.11.2013 16:47 21,8 C 11,8 C 10,1 C 92 % 1 % 1003 hPa 0,0 l/m 0,7 km/h (0 Bft) 0 min
02.11.2013 16:50 21,8 C 11,8 C 9,9 C 93 % 1 % 1003 hPa 0,0 l/m 0,7 km/h (0 Bft) 0 min
02.11.2013 16:53 21,8 C 11,7 C 9,8 C 93 % 0 % 1003 hPa 0,0 l/m 0,0 km/h (0 Bft) 0 min
02.11.2013 16:56 21,8 C 11,7 C 10,0 C 93 % 0 % 1003 hPa 0,0 l/m 3,6 km/h (1 Bft) 0 min
02.11.2013 16:59 21,8 C 11,6 C 9,9 C 93 % 0 % 1003 hPa 0,0 l/m 4,0 km/h (1 Bft) 0 min
02.11.2013 17:02 21,8 C 11,4 C 9,8 C 93 % 0 % 1003 hPa 0,0 l/m 0,3 km/h (0 Bft) 0 min
02.11.2013 17:05 21,8 C 11,4 C 9,6 C 93 % 0 % 1003 hPa 0,0 l/m 1,1 km/h (1 Bft) 0 min
02.11.2013 17:08 21,8 C 11,3 C 9,3 C 94 % 0 % 1003 hPa 0,0 l/m 0,0 km/h (0 Bft) 0 min
02.11.2013 17:11 21,8 C 11,3 C 9,1 C 94 % 0 % 1003 hPa 0,0 l/m 0,7 km/h (0 Bft) 0 min
02.11.2013 17:14 21,8 C 11,3 C 9,2 C 94 % 0 % 1003 hPa 0,0 l/m 2,3 km/h (1 Bft) 0 min
02.11.2013 17:17 21,8 C 11,3 C 9,1 C 94 % 0 % 1003 hPa 0,0 l/m 0,0 km/h (0 Bft) 0 min
02.11.2013 17:20 21,8 C 11,2 C 8,8 C 94 % 0 % 1003 hPa 0,0 l/m 0,0 km/h (0 Bft) 0 min
02.11.2013 17:23 21,8 C 11,1 C 9,0 C 94 % 0 % 1004 hPa 0,0 l/m 0,0 km/h (0 Bft) 0 min
02.11.2013 17:26 21,8 C 11,1 C 8,9 C 94 % 0 % 1004 hPa 0,0 l/m 0,0 km/h (0 Bft) 0 min
02.11.2013 17:29 21,8 C 11,1 C 9,1 C 94 % 0 % 1004 hPa 0,0 l/m 0,0 km/h (0 Bft) 0 min
02.11.2013 17:32 21,8 C 11,1 C 9,1 C 94 % 0 % 1004 hPa 0,0 l/m 0,0 km/h (0 Bft) 0 min
02.11.2013 17:35 21,8 C 11,1 C 9,1 C 94 % 0 % 1004 hPa 0,0 l/m 0,0 km/h (0 Bft) 0 min
02.11.2013 17:38 21,8 C 11,1 C 9,2 C 94 % 0 % 1004 hPa 0,0 l/m 0,0 km/h (0 Bft) 0 min
02.11.2013 17:41 21,9 C 11,1 C 9,3 C 94 % 0 % 1004 hPa 0,0 l/m 0,0 km/h (0 Bft) 0 min
02.11.2013 17:44 21,8 C 11,1 C 9,4 C 94 % 0 % 1004 hPa 0,0 l/m 0,0 km/h (0 Bft) 0 min
02.11.2013 17:47 21,8 C 11,0 C 9,5 C 94 % 0 % 1004 hPa 0,0 l/m 0,0 km/h (0 Bft) 0 min
02.11.2013 17:50 21,9 C 11,0 C 9,5 C 94 % 0 % 1004 hPa 0,0 l/m 0,0 km/h (0 Bft) 0 min
02.11.2013 17:53 21,9 C 11,0 C 9,5 C 94 % 0 % 1004 hPa 0,0 l/m 0,0 km/h (0 Bft) 0 min
02.11.2013 17:56 21,9 C 11,0 C 9,6 C 94 % 0 % 1004 hPa 0,0 l/m 0,4 km/h (0 Bft) 0 min
02.11.2013 17:59 21,9 C 11,1 C 9,6 C 94 % 0 % 1004 hPa 0,0 l/m 0,0 km/h (0 Bft) 0 min
02.11.2013 18:02 21,9 C 11,0 C 9,6 C 94 % 0 % 1004 hPa 0,0 l/m 0,0 km/h (0 Bft) 0 min
02.11.2013 18:05 21,9 C 11,1 C 9,6 C 94 % 0 % 1004 hPa 0,0 l/m 0,0 km/h (0 Bft) 0 min
02.11.2013 18:08 21,9 C 11,1 C 9,8 C 94 % 0 % 1004 hPa 0,0 l/m 0,6 km/h (0 Bft) 0 min
02.11.2013 18:11 21,9 C 11,1 C 9,8 C 94 % 0 % 1004 hPa 0,0 l/m 3,7 km/h (1 Bft) 0 min
02.11.2013 18:14 21,9 C 11,0 C 9,8 C 95 % 0 % 1004 hPa 0,0 l/m 1,7 km/h (1 Bft) 0 min
02.11.2013 18:17 21,9 C 11,0 C 9,7 C 95 % 0 % 1004 hPa 0,0 l/m 1,0 km/h (0 Bft) 0 min
02.11.2013 18:20 22,0 C 11,0 C 9,7 C 95 % 0 % 1004 hPa 0,0 l/m 1,1 km/h (1 Bft) 0 min
02.11.2013 18:23 21,9 C 11,0 C 9,5 C 95 % 0 % 1004 hPa 0,0 l/m 0,3 km/h (0 Bft) 0 min
02.11.2013 18:26 22,0 C 11,0 C 9,6 C 95 % 0 % 1004 hPa 0,0 l/m 0,3 km/h (0 Bft) 0 min
02.11.2013 18:29 22,0 C 11,0 C 9,7 C 95 % 0 % 1004 hPa 0,0 l/m 3,0 km/h (1 Bft) 0 min
02.11.2013 18:32 22,0 C 11,0 C 9,6 C 95 % 0 % 1004 hPa 0,0 l/m 4,1 km/h (1 Bft) 0 min
02.11.2013 18:35 22,0 C 11,0 C 9,8 C 95 % 0 % 1004 hPa 0,0 l/m 4,1 km/h (1 Bft) 0 min
02.11.2013 18:38 22,0 C 11,0 C 9,8 C 95 % 0 % 1004 hPa 0,0 l/m 5,2 km/h (1 Bft) 0 min
02.11.2013 18:41 22,0 C 10,9 C 9,7 C 95 % 0 % 1004 hPa 0,0 l/m 1,9 km/h (1 Bft) 0 min
02.11.2013 18:44 22,0 C 10,8 C 9,6 C 95 % 0 % 1004 hPa 0,0 l/m 0,1 km/h (0 Bft) 0 min
02.11.2013 18:47 22,0 C 10,8 C 9,3 C 95 % 0 % 1004 hPa 0,0 l/m 0,0 km/h (0 Bft) 0 min
02.11.2013 18:50 22,0 C 10,8 C 9,1 C 95 % 0 % 1004 hPa 0,0 l/m 0,0 km/h (0 Bft) 0 min
02.11.2013 18:53 22,0 C 10,7 C 8,9 C 95 % 0 % 1004 hPa 0,0 l/m 0,0 km/h (0 Bft) 0 min
02.11.2013 18:56 22,0 C 10,7 C 9,1 C 95 % 0 % 1004 hPa 0,0 l/m 0,0 km/h (0 Bft) 0 min
02.11.2013 18:59 22,0 C 10,6 C 9,1 C 95 % 0 % 1004 hPa 0,0 l/m 1,2 km/h (1 Bft) 0 min
02.11.2013 19:02 22,0 C 10,6 C 9,0 C 95 % 0 % 1004 hPa 0,0 l/m 3,6 km/h (1 Bft) 0 min
02.11.2013 19:05 22,0 C 10,6 C 9,1 C 95 % 0 % 1004 hPa 0,0 l/m 0,6 km/h (0 Bft) 0 min
02.11.2013 19:08 22,0 C 10,6 C 9,0 C 96 % 0 % 1004 hPa 0,0 l/m 5,4 km/h (1 Bft) 0 min
02.11.2013 19:11 22,0 C 10,6 C 9,0 C 96 % 0 % 1004 hPa 0,0 l/m 5,6 km/h (1 Bft) 0 min
02.11.2013 19:14 22,0 C 10,6 C 8,8 C 96 % 0 % 1004 hPa 0,0 l/m 4,3 km/h (1 Bft) 0 min
02.11.2013 19:17 22,0 C 10,5 C 8,8 C 96 % 0 % 1004 hPa 0,0 l/m 4,5 km/h (1 Bft) 0 min
02.11.2013 19:20 22,0 C 10,5 C 8,7 C 96 % 0 % 1004 hPa 0,0 l/m 4,9 km/h (1 Bft) 0 min
02.11.2013 19:23 22,0 C 10,4 C 8,6 C 96 % 0 % 1004 hPa 0,0 l/m 7,2 km/h (2 Bft) 0 min
02.11.2013 19:26 22,0 C 10,4 C 8,8 C 96 % 0 % 1004 hPa 0,0 l/m 8,1 km/h (2 Bft) 0 min
02.11.2013 19:29 22,0 C 10,4 C 8,6 C 96 % 0 % 1004 hPa 0,0 l/m 9,2 km/h (2 Bft) 0 min
02.11.2013 19:32 22,0 C 10,4 C 8,4 C 96 % 0 % 1004 hPa 0,0 l/m 3,0 km/h (1 Bft) 0 min
02.11.2013 19:35 22,0 C 10,4 C 8,3 C 96 % 0 % 1004 hPa 0,0 l/m 2,7 km/h (1 Bft) 0 min
02.11.2013 19:38 22,1 C 10,4 C 8,3 C 96 % 0 % 1004 hPa 0,0 l/m 1,2 km/h (1 Bft) 0 min
02.11.2013 19:41 22,1 C 10,3 C 8,2 C 96 % 0 % 1004 hPa 0,0 l/m 5,6 km/h (1 Bft) 0 min
02.11.2013 19:44 22,1 C 10,3 C 8,2 C 96 % 0 % 1004 hPa 0,0 l/m 3,3 km/h (1 Bft) 0 min
02.11.2013 19:47 22,1 C 10,3 C 8,2 C 96 % 0 % 1004 hPa 0,0 l/m 4,0 km/h (1 Bft) 0 min
02.11.2013 19:50 22,1 C 10,3 C 7,8 C 96 % 0 % 1004 hPa 0,0 l/m 0,7 km/h (0 Bft) 0 min
02.11.2013 19:53 22,2 C 10,3 C 7,5 C 96 % 0 % 1004 hPa 0,0 l/m 0,0 km/h (0 Bft) 0 min
02.11.2013 19:56 22,2 C 10,2 C 7,4 C 96 % 0 % 1004 hPa 0,0 l/m 0,0 km/h (0 Bft) 0 min
02.11.2013 19:59 22,2 C 10,1 C 7,2 C 96 % 0 % 1004 hPa 0,0 l/m 0,0 km/h (0 Bft) 0 min
02.11.2013 20:02 22,2 C 10,1 C 7,2 C 96 % 0 % 1004 hPa 0,0 l/m 0,0 km/h (0 Bft) 0 min
02.11.2013 20:05 22,2 C 10,0 C 7,0 C 96 % 0 % 1004 hPa 0,0 l/m 0,0 km/h (0 Bft) 0 min
02.11.2013 20:08 22,2 C 10,0 C 7,1 C 96 % 0 % 1004 hPa 0,0 l/m 1,8 km/h (1 Bft) 0 min
02.11.2013 20:11 22,2 C 9,9 C 7,5 C 97 % 0 % 1004 hPa 0,0 l/m 4,6 km/h (1 Bft) 0 min
02.11.2013 20:14 22,2 C 9,9 C 7,7 C 97 % 0 % 1004 hPa 0,0 l/m 4,6 km/h (1 Bft) 0 min
02.11.2013 20:17 22,3 C 9,9 C 7,3 C 97 % 0 % 1004 hPa 0,0 l/m 0,7 km/h (0 Bft) 0 min
02.11.2013 20:20 22,3 C 9,8 C 7,3 C 97 % 0 % 1004 hPa 0,0 l/m 0,1 km/h (0 Bft) 0 min
02.11.2013 20:23 22,2 C 9,7 C 7,2 C 97 % 0 % 1004 hPa 0,0 l/m 0,1 km/h (0 Bft) 0 min
02.11.2013 20:26 22,2 C 9,5 C 7,0 C 97 % 0 % 1004 hPa 0,0 l/m 0,0 km/h (0 Bft) 0 min
02.11.2013 20:29 22,3 C 9,5 C 6,9 C 97 % 0 % 1004 hPa 0,0 l/m 0,0 km/h (0 Bft) 0 min
02.11.2013 20:32 22,2 C 9,4 C 6,6 C 97 % 0 % 1004 hPa 0,0 l/m 0,0 km/h (0 Bft) 0 min
02.11.2013 20:35 22,3 C 9,4 C 6,6 C 97 % 0 % 1004 hPa 0,0 l/m 0,0 km/h (0 Bft) 0 min
02.11.2013 20:38 22,2 C 9,4 C 6,6 C 97 % 0 % 1004 hPa 0,0 l/m 0,0 km/h (0 Bft) 0 min
02.11.2013 20:41 22,3 C 9,4 C 6,6 C 97 % 0 % 1004 hPa 0,0 l/m 0,0 km/h (0 Bft) 0 min
02.11.2013 20:44 22,3 C 9,4 C 7,0 C 97 % 0 % 1004 hPa 0,0 l/m 0,0 km/h (0 Bft) 0 min
02.11.2013 20:47 22,3 C 9,4 C 6,4 C 97 % 0 % 1004 hPa 0,0 l/m 0,0 km/h (0 Bft) 0 min
02.11.2013 20:50 22,3 C 9,3 C 6,6 C 97 % 0 % 1004 hPa 0,0 l/m 0,0 km/h (0 Bft) 0 min
02.11.2013 20:53 22,4 C 9,3 C 6,8 C 98 % 0 % 1004 hPa 0,0 l/m 3,8 km/h (1 Bft) 0 min
02.11.2013 20:56 22,4 C 9,3 C 6,8 C 98 % 0 % 1004 hPa 0,0 l/m 4,3 km/h (1 Bft) 0 min
02.11.2013 20:59 22,4 C 9,2 C 7,5 C 98 % 0 % 1004 hPa 0,0 l/m 4,4 km/h (1 Bft) 0 min
02.11.2013 21:02 22,4 C 9,2 C 7,5 C 97 % 0 % 1004 hPa 0,0 l/m 5,6 km/h (1 Bft) 0 min
02.11.2013 21:05 22,4 C 9,2 C 7,2 C 98 % 0 % 1004 hPa 0,0 l/m 3,9 km/h (1 Bft) 0 min
02.11.2013 21:08 22,4 C 9,2 C 7,0 C 98 % 0 % 1004 hPa 0,0 l/m 4,9 km/h (1 Bft) 0 min
02.11.2013 21:11 22,4 C 9,2 C 6,8 C 98 % 0 % 1004 hPa 0,0 l/m 1,2 km/h (1 Bft) 0 min
02.11.2013 21:14 22,4 C 9,2 C 6,6 C 98 % 0 % 1004 hPa 0,0 l/m 0,2 km/h (0 Bft) 0 min
02.11.2013 21:17 22,4 C 9,1 C 6,3 C 98 % 0 % 1004 hPa 0,0 l/m 0,0 km/h (0 Bft) 0 min
02.11.2013 21:20 22,4 C 9,0 C 6,4 C 98 % 0 % 1004 hPa 0,0 l/m 0,0 km/h (0 Bft) 0 min
02.11.2013 21:23 22,4 C 9,0 C 6,3 C 98 % 0 % 1004 hPa 0,0 l/m 0,0 km/h (0 Bft) 0 min
02.11.2013 21:26 22,4 C 8,9 C 5,9 C 98 % 0 % 1005 hPa 0,0 l/m 0,0 km/h (0 Bft) 0 min
02.11.2013 21:29 22,4 C 8,9 C 6,0 C 98 % 0 % 1005 hPa 0,0 l/m 0,0 km/h (0 Bft) 0 min
02.11.2013 21:32 22,4 C 8,8 C 5,8 C 98 % 0 % 1005 hPa 0,0 l/m 0,0 km/h (0 Bft) 0 min
02.11.2013 21:35 22,4 C 8,8 C 6,2 C 98 % 0 % 1004 hPa 0,0 l/m 0,0 km/h (0 Bft) 0 min
02.11.2013 21:38 22,4 C 8,7 C 5,9 C 98 % 0 % 1004 hPa 0,0 l/m 1,3 km/h (1 Bft) 0 min
02.11.2013 21:41 22,4 C 8,7 C 6,2 C 98 % 0 % 1004 hPa 0,0 l/m 0,0 km/h (0 Bft) 0 min
02.11.2013 21:44 22,4 C 8,7 C 5,9 C 98 % 0 % 1004 hPa 0,0 l/m 0,0 km/h (0 Bft) 0 min
02.11.2013 21:47 22,4 C 8,6 C 6,2 C 98 % 0 % 1004 hPa 0,0 l/m 0,3 km/h (0 Bft) 0 min
02.11.2013 21:50 22,4 C 8,5 C 6,1 C 98 % 0 % 1004 hPa 0,0 l/m 3,5 km/h (1 Bft) 0 min
02.11.2013 21:53 22,4 C 8,5 C 6,5 C 98 % 0 % 1004 hPa 0,0 l/m 4,2 km/h (1 Bft) 0 min
02.11.2013 21:56 22,4 C 8,5 C 6,2 C 98 % 0 % 1004 hPa 0,0 l/m 0,7 km/h (0 Bft) 0 min
02.11.2013 21:59 22,4 C 8,5 C 6,2 C 98 % 0 % 1004 hPa 0,0 l/m 0,7 km/h (0 Bft) 0 min
02.11.2013 22:02 22,4 C 8,5 C 6,5 C 98 % 0 % 1004 hPa 0,0 l/m 3,7 km/h (1 Bft) 0 min
02.11.2013 22:05 22,4 C 8,4 C 6,5 C 98 % 0 % 1004 hPa 0,0 l/m 3,6 km/h (1 Bft) 0 min
02.11.2013 22:08 22,4 C 8,4 C 6,8 C 98 % 0 % 1004 hPa 0,0 l/m 3,6 km/h (1 Bft) 0 min
02.11.2013 22:11 22,4 C 8,3 C 6,9 C 98 % 0 % 1004 hPa 0,0 l/m 4,2 km/h (1 Bft) 0 min
02.11.2013 22:14 22,4 C 8,3 C 6,8 C 98 % 0 % 1004 hPa 0,0 l/m 5,1 km/h (1 Bft) 0 min
02.11.2013 22:17 22,4 C 8,3 C 7,0 C 98 % 0 % 1004 hPa 0,0 l/m 5,7 km/h (1 Bft) 0 min
02.11.2013 22:20 22,4 C 8,2 C 6,8 C 99 % 0 % 1004 hPa 0,0 l/m 6,8 km/h (2 Bft) 0 min
02.11.2013 22:23 22,4 C 8,1 C 6,7 C 99 % 0 % 1004 hPa 0,0 l/m 7,6 km/h (2 Bft) 0 min
02.11.2013 22:26 22,4 C 8,1 C 6,8 C 99 % 0 % 1004 hPa 0,0 l/m 5,7 km/h (1 Bft) 0 min
02.11.2013 22:29 22,3 C 8,1 C 6,7 C 99 % 0 % 1004 hPa 0,0 l/m 4,5 km/h (1 Bft) 0 min
02.11.2013 22:32 22,3 C 8,1 C 6,7 C 99 % 0 % 1004 hPa 0,0 l/m 4,5 km/h (1 Bft) 0 min
02.11.2013 22:35 22,3 C 8,1 C 6,5 C 99 % 0 % 1004 hPa 0,0 l/m 1,5 km/h (1 Bft) 0 min
02.11.2013 22:38 22,3 C 8,1 C 6,2 C 99 % 0 % 1004 hPa 0,0 l/m 0,6 km/h (0 Bft) 0 min
02.11.2013 22:41 22,3 C 8,1 C 6,3 C 99 % 0 % 1004 hPa 0,0 l/m 0,3 km/h (0 Bft) 0 min
02.11.2013 22:44 22,2 C 8,1 C 6,3 C 99 % 0 % 1004 hPa 0,0 l/m 0,3 km/h (0 Bft) 0 min
02.11.2013 22:47 22,2 C 8,1 C 6,3 C 99 % 0 % 1004 hPa 0,0 l/m 3,4 km/h (1 Bft) 0 min
02.11.2013 22:50 22,2 C 8,0 C 6,1 C 99 % 0 % 1004 hPa 0,0 l/m 4,2 km/h (1 Bft) 0 min
02.11.2013 22:53 22,2 C 7,9 C 6,4 C 99 % 0 % 1004 hPa 0,0 l/m 4,9 km/h (1 Bft) 0 min
02.11.2013 22:56 22,2 C 7,8 C 6,3 C 99 % 0 % 1004 hPa 0,0 l/m 4,1 km/h (1 Bft) 0 min
02.11.2013 22:59 22,2 C 7,7 C 6,3 C 99 % 0 % 1004 hPa 0,0 l/m 3,8 km/h (1 Bft) 0 min
02.11.2013 23:02 22,2 C 7,6 C 6,2 C 99 % 0 % 1004 hPa 0,0 l/m 3,7 km/h (1 Bft) 0 min
02.11.2013 23:05 22,2 C 7,6 C 6,2 C 99 % 0 % 1004 hPa 0,0 l/m 4,0 km/h (1 Bft) 0 min
02.11.2013 23:08 22,2 C 7,5 C 6,3 C 99 % 0 % 1004 hPa 0,0 l/m 4,3 km/h (1 Bft) 0 min
02.11.2013 23:11 22,2 C 7,6 C 6,3 C 99 % 0 % 1004 hPa 0,0 l/m 6,4 km/h (2 Bft) 0 min
02.11.2013 23:14 22,2 C 7,6 C 6,4 C 99 % 0 % 1004 hPa 0,0 l/m 5,6 km/h (1 Bft) 0 min
02.11.2013 23:17 22,1 C 7,7 C 6,4 C 99 % 0 % 1004 hPa 0,0 l/m 3,7 km/h (1 Bft) 0 min
02.11.2013 23:20 22,1 C 7,7 C 6,4 C 99 % 0 % 1004 hPa 0,0 l/m 1,9 km/h (1 Bft) 0 min
02.11.2013 23:23 22,1 C 7,7 C 6,2 C 99 % 0 % 1004 hPa 0,0 l/m 2,2 km/h (1 Bft) 0 min
02.11.2013 23:26 22,1 C 7,8 C 6,2 C 99 % 0 % 1004 hPa 0,0 l/m 1,0 km/h (0 Bft) 0 min
02.11.2013 23:29 22,1 C 7,8 C 6,0 C 99 % 0 % 1004 hPa 0,0 l/m 1,4 km/h (1 Bft) 0 min
02.11.2013 23:32 22,1 C 7,8 C 6,0 C 99 % 0 % 1004 hPa 0,0 l/m 0,7 km/h (0 Bft) 0 min
02.11.2013 23:35 22,0 C 7,8 C 6,1 C 99 % 0 % 1004 hPa 0,0 l/m 0,0 km/h (0 Bft) 0 min
02.11.2013 23:38 22,0 C 7,7 C 6,2 C 99 % 0 % 1004 hPa 0,0 l/m 0,0 km/h (0 Bft) 0 min
02.11.2013 23:41 22,0 C 7,7 C 6,1 C 99 % 0 % 1004 hPa 0,0 l/m 0,0 km/h (0 Bft) 0 min
02.11.2013 23:44 22,0 C 7,7 C 6,7 C 99 % 0 % 1004 hPa 0,0 l/m 0,0 km/h (0 Bft) 0 min
02.11.2013 23:47 22,0 C 7,8 C 7,0 C 99 % 0 % 1004 hPa 0,0 l/m 0,1 km/h (0 Bft) 0 min
02.11.2013 23:50 22,0 C 7,8 C 7,2 C 99 % 0 % 1004 hPa 0,0 l/m 0,1 km/h (0 Bft) 0 min
02.11.2013 23:53 22,0 C 7,8 C 6,8 C 99 % 0 % 1004 hPa 0,0 l/m 0,0 km/h (0 Bft) 0 min
02.11.2013 23:56 22,0 C 7,7 C 6,7 C 99 % 0 % 1004 hPa 0,0 l/m 0,3 km/h (0 Bft) 0 min
02.11.2013 23:59 22,0 C 7,7 C 6,8 C 99 % 0 % 1004 hPa 0,0 l/m 4,5 km/h (1 Bft) 0 min
_ Min-Zeit 07:50 03:10 00:00 15:23 - 13:38 - 00:00 -
Minimum _ 20,9 C 5,4 C 4,0 C 91 % - 1003 hPa - 0,0 km/h (0 Bft) -
_ Max-Zeit 20:53 15:35 12:29 00:00 13:50 00:00 00:00 11:35 13:11
Maximum _ 22,4 C 12,2 C 12,6 C 99 % 100 % 1009 hPa 0,0 l/m 12,5 km/h
O-SO (3 Bft)
3 min
Durchschnitt _ 21,7 C 8,4 C 7,9 C 97 % #1:30 h 1005 hPa #0,0 l/m 2,4 km/h (1 Bft) #1:30 h